Location: Trebic
(49.2170°N, 15.8830°E)
Time: 13:57:24
(UTC+02:00)

A-11 Canister half - Visible Passes

Search period start: 22 July 2019 00:00
Search period end: 01 August 2019 00:00
Orbit: 1526 x 1683 km, 47.3° (Epoch: 21 July)

Date Brightness Start Highest point End Pass type
(mag) Time Alt. Az. Time Alt. Az. Time Alt. Az.
22 Jul 9.0 00:14:23 10° W 00:24:20 81° S 00:33:55 10° E visible
22 Jul 9.0 02:19:31 10° W 02:29:06 62° SSW 02:38:21 10° SE visible
22 Jul 9.7 04:25:08 10° W 04:32:44 28° SW 04:40:12 10° S visible
22 Jul 9.1 21:48:03 10° SW 21:57:53 61° SSE 22:07:25 10° ENE visible
22 Jul 9.0 23:52:42 10° W 00:02:41 81° S 00:12:19 10° E visible
23 Jul 9.0 01:57:51 10° W 02:07:30 64° SSW 02:16:47 10° SE visible
23 Jul 9.6 04:03:25 10° W 04:11:12 29° SW 04:18:49 10° S visible
23 Jul 9.2 21:26:28 10° SW 21:36:15 60° SSE 21:45:48 10° ENE visible
23 Jul 9.0 23:31:03 10° W 23:41:03 81° S 23:50:42 10° E visible
24 Jul 8.9 01:36:12 10° W 01:45:53 65° SSW 01:55:13 10° ESE visible
24 Jul 9.6 03:41:41 10° W 03:49:39 30° SW 03:57:27 10° SSE visible
24 Jul 9.0 23:09:23 10° W 23:19:24 81° S 23:29:05 10° E visible
25 Jul 8.9 01:14:32 10° W 01:24:16 67° SSW 01:33:40 10° ESE visible
25 Jul 9.5 03:19:58 10° W 03:28:07 32° SW 03:36:02 10° SSE visible
25 Jul 9.0 22:47:42 10° W 22:57:45 81° S 23:07:28 10° E visible
26 Jul 8.9 00:52:52 10° W 01:02:39 68° SSW 01:12:05 10° ESE visible
26 Jul 9.5 02:58:16 10° WNW 03:06:34 33° SW 03:14:38 10° SSE visible
26 Jul 9.1 22:26:03 10° W 22:36:07 80° S 22:45:51 10° E visible
27 Jul 9.0 00:31:13 10° W 00:41:02 69° SSW 00:50:30 10° ESE visible
27 Jul 9.5 02:36:34 10° WNW 02:45:01 35° SW 02:53:13 10° SSE visible
27 Jul 9.1 22:04:23 10° WSW 22:14:28 80° S 22:24:14 10° E visible
28 Jul 9.0 00:09:32 10° W 00:19:25 71° SSW 00:28:55 10° ESE visible
28 Jul 9.4 02:14:53 10° WNW 02:23:27 36° SW 02:29:09 20° S visible
28 Jul 9.1 21:42:43 10° WSW 21:52:48 79° S 22:02:36 10° E visible
28 Jul 9.0 23:47:52 10° W 23:57:46 72° SSW 00:07:20 10° ESE visible
29 Jul 9.4 01:53:10 10° WNW 02:01:53 38° SW 02:05:36 28° S visible
29 Jul 10.5 04:03:28 10° WSW 04:03:43 10° WSW 04:03:43 10° WSW visible
29 Jul 9.1 21:21:04 10° WSW 21:31:10 79° S 21:40:59 10° E visible
29 Jul 9.0 23:26:12 10° W 23:36:09 73° SSW 23:45:11 12° ESE visible
30 Jul 9.4 01:31:29 10° WNW 01:40:19 39° SW 01:43:21 32° S visible
30 Jul 10.5 03:40:30 10° WSW 03:41:31 11° WSW 03:41:31 11° WSW visible
30 Jul 9.2 20:59:24 10° WSW 21:09:31 78° S 21:19:21 10° E visible
30 Jul 9.0 23:04:32 10° W 23:14:31 74° SSW 23:23:22 13° ESE visible
31 Jul 9.4 01:09:47 10° WNW 01:18:45 41° SW 01:21:34 34° S visible
31 Jul 10.5 03:18:08 10° W 03:19:46 12° WSW 03:19:46 12° WSW visible
31 Jul 9.0 22:42:51 10° W 22:52:52 75° SSW 23:01:50 13° ESE visible
